NOAA 16 DEB, 42427

Orbit data source: Space-Track

NOAA 16 DEB, 42427 is space debris in SSO originally from a launch on Thu, 21 Sep 2000 UTC launched from the Air Force Western Test Range (AFWTR). Debris objects in space refer to the collection of defunct objects orbiting the Earth. Examples of debris include non-operational satellites, rocket bodies, and fragments generated from explosions, collisions, or faulty payload assembly.

Loading next visibility...
Identifier
42427, 2000-055TX
Orbit
SSO
Country
Flag of USUS
Related business
Manufacturer
Unknown
Mission
Spacecraft
Bus & Motor
Unknown
Mass
Unknown
Launch date (UTC)
2000-09-21 (25 years ago)
Launch vehicle
Unknown
Launch site
Air Force Western Test Range (AFWTR)
Object type
Payload
Rocket body
Debris
Shape & HBR
Unknown shape, 0.1 m
Radar Cross Section
Small (<0.1 m²)

Expand to show TLE details & history
Last TLE update: 2 months ago

TLE from 2 months ago
0 NOAA 16 DEB
1 42427U 00055TX  25238.39138340  .00018040  00000-0  27465-2 0  9999
2 42427  98.8997 114.7829 0041341  47.8348 312.6357 14.73423791474227
Epoch: 2025-08-26T09:23Z
TLE epoch observation values (Epoch: 2025-08-26T09:23:35.525Z)
Latitude
Longitude
-0.99888°
Altitude
633.521 km
Speed
7.552 km/s
True Right ascension
07h 39m 07s
True Declination
0° 00' 00"
Sunlit
Object was in daylight at epoch
Visualization orbit readout
Latitude
Unknown
Longitude
Unknown
Altitude
Unknown
Speed
Unknown
Apparent Right ascension
Unknown
Apparent Declination
Unknown
Sunlit
N/A
Visualization observer readout
Local Sidereal Time
09:38:58
Azimuth
Unknown
Elevation
Unknown
Doppler factor
Unknown
Orbital elements
Apogee altitude
676.3 km
Perigee altitude
618.212 km
Semi-major axis
7,025.393 km
Eccentricity
0.00413
Inclination
98.8997°
RAAN
114.7829°
Arg. of periapsis
47.8348°
True anomaly
312.28596°
Mean anomaly
312.6357°
Eccentric anomaly
312.46095°
Mean motion
3.68585 °/min
Orbital period
97.67 mins
BSTAR
0.0027465
Loading maneuver chart data...
Computing Atmospheric mass density...
Loading historical data...
Loading historical data...
Loading historical data...
Loading historical data...
Loading historical data...
Loading historical data...
Loading historical data...

Documentation

Showing up to 5 results
|